VE2JOS-13 Weather Reports


time (UTC)temp
C
wind
direction
speed
KPH
gust
KPH
rain 1hr
cm
rain 24hr
cm
rain mn
cm
humidity
%
barometer
mb
20260507064758 6 247 0.0 1.6 0.00 0.00 0.00 8
20260507062840 6 0 0.0 3.2 0.00 0.00 0.00 8
20260507060916 6 263 3.2 3.2 0.00 0.00 0.00 8
20260507055023 7 242 0.0 4.8 0.00 0.00 0.00 8
20260507053331 7 268 0.0 3.2 0.00 0.00 0.00 8
20260507051435 7 130 0.0 1.6 0.00 0.00 0.00 8
20260507045817 7 235 1.6 3.2 0.00 0.00 0.00 8
20260507043853 7 219 1.6 3.2 0.00 0.00 0.00 8
20260507042018 7 0 0.0 1.6 0.00 0.00 0.00 8
20260507034334 7 0 0.0 0.0 0.00 0.00 0.00 8
20260507032418 7 256 0.0 0.0 0.00 0.00 0.00 8
20260507030713 7 252 0.0 0.0 0.00 0.00 0.00 8
20260507025103 7 0 0.0 0.0 0.00 0.00 0.00 8
20260507023153 7 0 0.0 0.0 0.00 0.00 0.00 8
20260507021432 7 249 1.6 3.2 0.00 0.00 0.00 8
20260507021358 7 249 1.6 3.2 0.00 0.00 0.00 8
20260507015533 7 248 0.0 0.0 0.00 0.00 0.00 8
20260507013928 7 0 0.0 0.0 0.00 0.00 0.00 8
20260507012053 7 0 0.0 0.0 0.00 0.00 0.00 8
20260507010233 8 204 1.6 1.6 0.00 0.00 0.00 8
20260507004533 8 234 0.0 0.0 0.00 0.00 0.00 8
20260507002738 8 220 1.6 3.2 0.00 0.00 0.00 8
20260507001047 8 219 0.0 1.6 0.00 0.00 0.00 8
20260506235335 8 209 1.6 0.0 0.00 0.00 0.00 8
20260506233530 8 0 0.0 0.0 0.00 0.00 0.00 8
20260506231538 8 0 0.0 0.0 0.00 0.00 0.00 8
20260506225808 8 0 0.0 0.0 0.00 0.00 0.00 8
20260506224123 8 0 0.0 0.0 0.00 0.00 0.00 8
20260506222147 9 246 0.0 0.0 0.00 0.00 0.00 7
20260506220228 9 0 0.0 0.0 0.00 0.00 0.00 8
20260506214247 8 0 0.0 0.0 0.00 0.00 0.00 8
20260506212503 8 0 0.0 0.0 0.00 0.00 0.00 8
20260506210627 8 248 1.6 3.2 0.00 0.00 0.00 7
20260506204843 8 208 0.0 3.2 0.00 0.00 0.00 7
20260506202912 8 0 0.0 0.0 0.00 0.00 0.00 7
20260506200918 8 247 0.0 0.0 0.00 0.00 0.00 7
20260506195158 8 235 1.6 3.2 0.00 0.00 0.00 8
20260506193352 8 220 0.0 1.6 0.00 0.00 0.00 7
20260506191643 8 0 0.0 0.0 0.00 0.00 0.00 8
20260506185718 8 247 0.0 0.0 0.00 0.00 0.00 8
20260506183933 8 269 1.6 1.6 0.00 0.00 0.00 8
20260506182218 8 219 1.6 3.2 0.00 0.00 0.00 8
20260506180537 9 0 0.0 3.2 0.00 0.00 0.00 8
20260506174634 8 251 0.0 1.6 0.00 0.00 0.00 8
20260506172806 7 181 0.0 1.6 0.00 0.00 0.00 9
20260506170827 7 217 3.2 4.8 0.03 0.00 0.00 8
20260506164903 7 173 1.6 3.2 0.08 0.00 0.00 9
20260506163228 7 0 0.0 0.0 0.08 0.00 0.00 9
20260506161337 6 223 1.6 3.2 0.08 0.00 0.00 9
20260506155603 6 241 0.0 0.0 0.03 0.00 0.00 9
20260506153827 7 252 0.0 0.0 0.03 0.00 0.00 9
20260506151843 7 0 0.0 0.0 0.18 0.00 0.00 9
20260506150058 7 0 0.0 0.0 0.25 0.00 0.00 9
20260506144428 6 0 0.0 0.0 0.25 0.00 0.00 9
20260506142443 6 241 0.0 1.6 0.18 0.00 0.00 9
20260506140548 7 236 1.6 3.2 0.10 0.00 0.00 9
20260506134747 7 207 1.6 3.2 0.08 0.00 0.00 9
20260506133046 7 208 3.2 3.2 0.08 0.00 0.00 9
20260506131314 7 230 1.6 1.6 0.05 0.00 0.00 9
20260506125708 7 208 0.0 1.6 0.00 0.00 0.00 9
20260506123923 7 236 0.0 0.0 0.05 0.00 0.00 9
20260506122127 7 235 3.2 4.8 0.05 0.00 0.00 9
20260506120528 7 212 3.2 4.8 0.08 0.00 0.00 9
20260506114823 7 258 0.0 1.6 0.08 0.00 0.00 8
20260506113008 7 252 0.0 1.6 0.05 0.00 0.00 8
20260506111404 7 257 3.2 4.8 0.03 0.00 0.00 8
20260506105606 8 223 1.6 3.2 0.03 0.00 0.00 8
20260506103643 8 181 1.6 1.6 0.00 0.00 0.00 7
20260506101823 8 227 1.6 3.2 0.00 0.00 0.00 7
20260506100023 9 0 0.0 0.0 0.00 0.00 0.00 7
20260506094034 10 0 0.0 1.6 0.00 0.00 0.00 7
20260506092207 10 0 0.0 0.0 0.00 0.00 0.00 8
20260506090413 10 260 0.0 0.0 0.00 0.00 0.00 8
20260506084543 10 251 0.0 0.0 0.00 0.00 0.00 8
20260506082823 10 0 0.0 0.0 0.00 0.00 0.00 8
20260506081228 10 241 0.0 0.0 0.00 0.00 0.00 8
20260506073458 10 237 0.0 1.6 0.00 0.00 0.00 8
20260506071547 10 260 0.0 0.0 0.00 0.00 0.00 8